TimePST,TemperatureF,Dew PointF,Humidity,Sea Level PressureIn,VisibilityMPH,Wind Direction,Wind SpeedMPH,Gust SpeedMPH,PrecipitationIn,Events,Conditions,WindDirDegrees,DateUTC
12:56 AM,39.9,35.1,83,30.13,10.0,ESE,8.1,-,N/A,,Overcast,110,2014-01-07 08:56:00
1:56 AM,44.1,35.1,71,30.12,10.0,SE,9.2,-,N/A,,Overcast,130,2014-01-07 09:56:00
2:56 AM,46.0,37.9,73,30.12,10.0,East,10.4,-,0.00,Rain,Light Rain,100,2014-01-07 10:56:00
3:38 AM,46.0,37.9,73,30.10,10.0,ESE,10.4,-,0.00,,Overcast,120,2014-01-07 11:38:00
3:56 AM,46.0,39.0,76,30.11,10.0,ESE,12.7,-,0.00,Rain,Light Rain,120,2014-01-07 11:56:00
4:56 AM,46.0,39.0,76,30.09,10.0,ESE,10.4,-,0.00,Rain,Light Rain,120,2014-01-07 12:56:00
5:56 AM,46.0,41.0,83,30.07,10.0,ESE,11.5,-,0.00,Rain,Light Rain,110,2014-01-07 13:56:00
6:25 AM,46.0,43.0,89,30.05,5.0,ESE,11.5,-,0.04,Rain,Rain,110,2014-01-07 14:25:00
6:56 AM,46.0,43.0,89,30.04,5.0,East,8.1,-,0.07,Rain,Light Rain,100,2014-01-07 14:56:00
7:29 AM,46.0,41.0,83,30.03,7.0,SSE,5.8,-,0.00,Rain,Light Rain,150,2014-01-07 15:29:00
7:56 AM,45.0,39.9,82,30.05,8.0,South,5.8,-,0.03,Rain,Light Rain,180,2014-01-07 15:56:00
8:56 AM,46.0,41.0,83,30.04,8.0,East,12.7,-,0.08,Rain,Light Rain,100,2014-01-07 16:56:00
9:23 AM,48.0,43.0,83,30.03,8.0,ESE,11.5,-,0.00,,Overcast,110,2014-01-07 17:23:00
9:56 AM,48.0,43.0,83,30.04,9.0,East,10.4,-,0.00,,Overcast,100,2014-01-07 17:56:00
10:13 AM,48.0,43.0,83,30.03,10.0,ESE,12.7,-,0.00,Rain,Light Rain,120,2014-01-07 18:13:00
10:35 AM,46.9,43.0,86,30.02,6.0,ESE,10.4,-,0.02,Rain,Light Rain,110,2014-01-07 18:35:00
10:56 AM,48.0,43.0,83,30.03,7.0,ESE,12.7,-,0.02,Rain,Light Rain,110,2014-01-07 18:56:00
11:25 AM,48.0,43.0,83,30.01,8.0,ESE,15.0,-,0.01,,Overcast,110,2014-01-07 19:25:00
11:56 AM,48.0,43.0,83,30.01,8.0,ESE,12.7,-,0.01,,Overcast,120,2014-01-07 19:56:00
12:36 PM,48.0,43.0,83,29.98,8.0,ESE,10.4,-,0.00,Rain,Light Rain,110,2014-01-07 20:36:00
12:56 PM,48.9,43.0,80,29.99,8.0,ESE,10.4,-,0.00,Rain,Light Rain,110,2014-01-07 20:56:00
1:56 PM,50.0,43.0,77,29.98,8.0,ESE,11.5,-,0.01,Rain,Light Rain,120,2014-01-07 21:56:00
2:56 PM,50.0,43.0,77,29.99,10.0,ESE,13.8,23.0,0.03,Rain,Light Rain,120,2014-01-07 22:56:00
3:56 PM,50.0,42.1,74,29.99,10.0,SE,13.8,-,0.00,Rain,Light Rain,140,2014-01-07 23:56:00
4:42 PM,48.9,43.0,80,29.98,10.0,ESE,11.5,-,0.00,Rain,Light Rain,120,2014-01-08 00:42:00
4:56 PM,48.9,43.0,80,29.99,10.0,ESE,12.7,-,0.00,Rain,Light Rain,120,2014-01-08 00:56:00
5:48 PM,48.0,43.0,83,29.98,10.0,ESE,11.5,-,0.01,Rain,Light Rain,120,2014-01-08 01:48:00
5:56 PM,48.0,43.0,83,29.99,8.0,ESE,10.4,-,0.01,Rain,Light Rain,110,2014-01-08 01:56:00
6:56 PM,48.0,43.0,83,29.99,7.0,SE,12.7,-,0.00,Rain,Light Rain,130,2014-01-08 02:56:00
7:24 PM,48.0,43.0,83,29.98,10.0,SE,12.7,-,0.00,,Overcast,130,2014-01-08 03:24:00
7:27 PM,48.0,43.0,83,29.98,10.0,SE,13.8,-,0.00,,Overcast,130,2014-01-08 03:27:00
7:56 PM,48.0,43.0,83,30.00,10.0,ESE,9.2,-,0.00,,Overcast,120,2014-01-08 03:56:00
8:56 PM,48.9,43.0,80,30.00,10.0,SE,11.5,-,N/A,,Overcast,130,2014-01-08 04:56:00
9:56 PM,48.9,43.0,80,30.02,10.0,ESE,8.1,-,N/A,,Overcast,120,2014-01-08 05:56:00
10:56 PM,48.9,43.0,80,30.01,10.0,ESE,11.5,-,N/A,,Overcast,120,2014-01-08 06:56:00
11:56 PM,48.9,43.0,80,30.01,10.0,ESE,9.2,-,N/A,,Overcast,120,2014-01-08 07:56:00